Home > Weather > Knittelfeld > Past weeks

Flag for Austria Past Weather in Knittelfeld, Styria, Austria — Yesterday and Last 2 Weeks

Now
57 °F

Sprinkles. Broken clouds.


Feels Like: 57 °F
Forecast: 50 / 63 °F
Wind: 3 mph from South

Location: Zeltweg

Current Time: May 31, 2016 at 6:17:34 PM

Latest Report: May 31, 2016 at 5:20 PM


Visibility: 9 mi

Pressure: 29.92 "Hg (27.72 "Hg at 641m altitude)

Humidity: 82%

Dew Point: 52 °F

Location of KnittelfeldLocation

Past Weather in Knittelfeld — Graph

°F

Knittelfeld Temperature Yesterday

Maximum temperature yesterday: 68 °F (at 1:50 PM)
Minimum temperature yesterday: 54 °F (at 5:50 AM)
Average temperature yesterday: 64 °F

High & Low Weather Summary for the Past Weeks

 TemperatureHumidityPressure
High79 °F (May 22, 2:20 PM)100% (May 17, 5:50 AM)30.21 "Hg (May 17, 5:50 AM)
Low34 °F (May 17, 5:50 AM)23% (May 21, 3:50 PM)29.71 "Hg (May 29, 3:50 PM)
Average61 °F60%29.94 "Hg
* Reported May 16 4:20 PM — May 31 4:50 PM, Knittelfeld, Weather by CustomWeather, © 2016

Note: Actual official high and low records may vary slightly from our data, if they occured in-between our weather recording intervals... More about our weather records

Advertising

Knittelfeld Weather History for the Previous 24 Hours

Scroll right to see more
 ConditionsComfort  
Time TempWeatherWind HumidityBarometerVisibility
4:50 PM
Tue, May 31
59 °FSprinkles. Broken clouds.3 mph82%29.92 "Hg9 mi
4:20 PM59 °FBroken clouds.2 mph77%29.92 "Hg12 mi
3:50 PM57 °FSprinkles. Broken clouds.3 mph88%29.92 "Hg12 mi
3:20 PM55 °FSprinkles. Broken clouds.2 mph88%29.92 "Hg12 mi
2:50 PM55 °FRain showers. Broken clouds.3 mph88%29.92 "Hg12 mi
2:20 PM55 °FRain showers. Partly sunny.8 mph88%29.92 "Hg9 mi
1:50 PM59 °FThunderstorms. Broken clouds.8 mph72%29.92 "Hg3 mi
1:20 PM61 °FThunderstorms. Broken clouds.9 mph68%29.89 "Hg12 mi
12:50 PM61 °FThunderstorms. Broken clouds.9 mph68%29.89 "Hg12 mi
12:20 PM59 °FSprinkles. Broken clouds.14 mph82%29.89 "Hg12 mi
11:50 AM57 °FSprinkles. Broken clouds.10 mph82%29.89 "Hg12 mi
11:20 AM61 °FSprinkles. Broken clouds.9 mph63%29.86 "Hg12 mi
10:50 AM66 °FBroken clouds.3 mph56%29.86 "Hg16 mi
10:20 AM64 °FScattered clouds.3 mph56%29.86 "Hg16 mi
9:50 AM64 °FScattered clouds.2 mph60%29.86 "Hg19 mi
9:20 AM63 °FScattered clouds.2 mph64%29.86 "Hg19 mi
8:50 AM57 °FPassing clouds.3 mph77%29.86 "Hg19 mi
8:20 AM55 °FPassing clouds.1 mph77%29.86 "Hg19 mi
7:50 AM55 °FPassing clouds.3 mph77%29.86 "Hg19 mi
7:20 AM55 °FPassing clouds.2 mph72%29.86 "Hg19 mi
6:50 AM52 °FPassing clouds.2 mph100%29.86 "Hg19 mi
5:50 AM48 °FPassing clouds.2 mph87%29.86 "Hg19 mi
10:50 PM
Mon, May 30
59 °FPassing clouds.7 mph63%29.83 "Hg12 mi
9:50 PM63 °FPassing clouds.7 mph52%29.83 "Hg19 mi
8:50 PM63 °FScattered clouds.9 mph56%29.80 "Hg19 mi
7:50 PM64 °FScattered clouds.8 mph52%29.80 "Hg19 mi
6:50 PM66 °FScattered clouds.12 mph49%29.80 "Hg19 mi
6:20 PM66 °FScattered clouds.14 mph52%29.80 "Hg19 mi
Weather by CustomWeather, © 2016

See weather overviewHow to use our weather pages